Pescara, Italy

6:10 AM CET on December 04, 2016 (GMT +0100)
Pescara

Weather History for LIBP - November, 2013

Change the Weather History Date:

Sunday, November 3, 2013

  Actual Average Record
Temperature  
Mean Temperature 66 °F -  
Max Temperature 78 °F 64 °F 78 °F (2013)
Min Temperature 53 °F 47 °F 35 °F (2006)
Growing Degree Days 16 (Base 50)    
Moisture  
Dew Point 52 °F    
Average Humidity 57    
Maximum Humidity 94    
Minimum Humidity 41    
Precipitation  
Precipitation 0.00 in - - ()
Sea Level Pressure  
Sea Level Pressure 29.89 in    
Wind  
Wind Speed 11 mph ()    
Max Wind Speed 32 mph    
Max Gust Speed 41 mph    
Visibility 6.2 miles    
Events      
Averages and records for this station are not official NWS values.
T = Trace of Precipitation, MM = Missing Value Source: Averaged Metar Reports

Daily Weather History Graph

Daily Weather History Graph

Search for Another Location

Airport or City:

Trip Planner

Search our weather history database for the weather conditions in past years. The results will help you decide how hot, cold, wet, or windy it might be!

Date:

Astronomy

Nov. 03, 2013 Rise Set
Actual Time 6:39 AM CET 4:53 PM CET
Civil Twilight 6:09 AM CET 5:23 PM CET
Nautical Twilight 5:36 AM CET 5:56 PM CET
Astronomical Twilight 5:03 AM CET 6:29 PM CET
Moon 6:23 AM CET (11/3) 4:55 PM CET (11/3)
Length of Visible Light 11h 13m
Length of Day
10h 14m
Waning Crescent, 0% of the Moon is Illuminated
Nov 3
Waning Crescent
Nov 3
New
Nov 10
First Quarter
Nov 17
Full
Nov 25
Last Quarter

Hourly Weather History & Observations

Time (CET) Temp. Dew Point Humidity Pressure Visibility Wind Dir Wind Speed Gust Speed Precip Events Conditions
12:50 AM 55.4 °F 50.0 °F 82% 30.01 in - Calm Calm - N/A   Clear
1:50 AM 55.4 °F 51.8 °F 88% 30.01 in - Variable 1.2 mph - N/A   Clear
2:50 AM 55.4 °F 51.8 °F 88% 30.01 in - Variable 1.2 mph - N/A   Clear
3:50 AM 53.6 °F 50.0 °F 88% 29.98 in - Variable 3.5 mph - N/A   Clear
4:50 AM 53.6 °F 50.0 °F 88% 29.95 in - Variable 2.3 mph - N/A   Clear
5:50 AM 55.4 °F 51.8 °F 88% 29.95 in - Variable 1.2 mph - N/A   Clear
6:50 AM 55.4 °F 50.0 °F 82% 29.95 in 6.2 mi Calm Calm - N/A   Partly Cloudy
7:50 AM 66.2 °F 64.4 °F 94% 29.92 in 6.2 mi SW 10.4 mph - N/A   Scattered Clouds
8:23 AM 71.6 °F 55.4 °F 57% 29.95 in 6.2 mi SW 21.9 mph - N/A   Scattered Clouds
8:50 AM 73.4 °F 53.6 °F 50% 29.95 in 6.2 mi SW 18.4 mph - N/A   Scattered Clouds
9:50 AM 73.4 °F 53.6 °F 50% 29.92 in 6.2 mi SSW 21.9 mph 33.4 mph N/A   Partly Cloudy
10:50 AM 77.0 °F 55.4 °F 47% 29.86 in 6.2 mi SW 32.2 mph - N/A   Partly Cloudy
11:04 AM 78.8 °F 53.6 °F 42% 29.86 in 6.2 mi SSW 26.5 mph 40.3 mph N/A   Partly Cloudy
11:50 AM 77.0 °F 51.8 °F 41% 29.86 in 6.2 mi SSW 29.9 mph 41.4 mph N/A   Partly Cloudy
12:50 PM 77.0 °F 51.8 °F 41% 29.83 in 6.2 mi SSW 24.2 mph - N/A   Partly Cloudy
1:15 PM 77.0 °F 51.8 °F 41% 29.83 in 6.2 mi SSW 20.7 mph 32.2 mph N/A   Partly Cloudy
1:50 PM 77.0 °F 51.8 °F 41% 29.83 in 6.2 mi SSW 24.2 mph - N/A   Partly Cloudy
2:01 PM 77.0 °F 51.8 °F 41% 29.83 in 6.2 mi SSW 21.9 mph 33.4 mph N/A   Partly Cloudy
2:50 PM 77.0 °F 53.6 °F 44% 29.83 in 6.2 mi SSW 23.0 mph - N/A   Partly Cloudy
3:10 PM 75.2 °F 51.8 °F 44% 29.83 in 6.2 mi SSW 20.7 mph 32.2 mph N/A   Scattered Clouds
3:50 PM 75.2 °F 53.6 °F 47% 29.83 in 6.2 mi SW 18.4 mph 29.9 mph N/A   Scattered Clouds
4:50 PM 75.2 °F 53.6 °F 47% 29.83 in 6.2 mi SW 23.0 mph - N/A   Scattered Clouds
5:25 PM 73.4 °F 51.8 °F 47% 29.83 in 6.2 mi SW 23.0 mph 34.5 mph N/A   Partly Cloudy
5:50 PM 73.4 °F 51.8 °F 47% 29.83 in 6.2 mi SW 20.7 mph - N/A   Partly Cloudy
6:50 PM 71.6 °F 51.8 °F 50% 29.86 in 6.2 mi SW 11.5 mph - N/A   Partly Cloudy
7:50 PM 71.6 °F 48.2 °F 43% 29.86 in - SW 19.6 mph - N/A   Clear
8:50 PM 73.4 °F 50.0 °F 44% 29.86 in - SW 18.4 mph 29.9 mph N/A   Clear
9:50 PM 71.6 °F 50.0 °F 46% 29.86 in - SW 11.5 mph - N/A   Clear
10:50 PM 71.6 °F 51.8 °F 50% 29.86 in - SW 13.8 mph - N/A   Clear
11:08 PM 71.6 °F 51.8 °F 50% 29.86 in - SW 19.6 mph 31.1 mph N/A   Clear
11:50 PM 71.6 °F 51.8 °F 50% 29.86 in - SSW 13.8 mph - N/A   Clear